Location: Croagnes
(43.9363°N, 5.3265°E)
Time: 17:33:23
(UTC+00:00)

MTI - Pass Details

Date: 06 June 2020
Orbit: 394 x 405 km, 97.5° (Epoch: 08 July)

Event Time Altitude Azimuth Distance (km) Brightness Sun altitude
Rises 21:37:50 0° 13° (NNE) 2,340 8.3 -17.9°
Reaches altitude 10° 21:39:50 10° 15° (NNE) 1,473 7.2 -18.0°
Maximum altitude 21:42:59 78° 102° (ESE) 418 3.5 -18.3°
Enters shadow 21:43:15 69° 159° (SSE) 436 3.5 -18.3°
